Tracking 19644 objects as of 26-Apr-2019
HD Live streaming from Space Station
objects crossing your sky now

COSMOS 2292

Track COSMOS 2292 now!
10-day predictions
COSMOS 2292 is classified as:


NORAD ID: 23278
Int'l Code: 1994-061A
Perigee: 402.2 km
Apogee: 1,709.3 km
Inclination: 83.0 °
Period: 106.2 minutes
Semi major axis: 7426 km
RCS: 2.958 m2 (large)
Launch date: September 27, 1994
Source: Commonwealth of Independent States (former USSR) (CIS)
Launch site: PLESETSK MISSILE AND SPACE COMPLEX (PKMTR)
aabbcc
Your satellite tracking list
Your tracking list is empty




NASA's NSSDC Master Catalog

Two Line Element Set (TLE):
1 23278U 94061A   19115.54658829 +.00000354 +00000-0 +28185-4 0  9996
2 23278 082.9850 019.6733 0879982 176.0112 184.8710 13.56443807202998
Source of the keplerian elements: AFSPC